This is the latest recevied weather packets stored in our database for station/object NO3U. If no packets are shown the sender has not sent any weather packets the latest 10 day(s).
| Time | Temp. | Humidity | Pressure | Rain* | Wind** | Luminosity | Snow |
|---|---|---|---|---|---|---|---|
| 1777910759 | 19.44° C | 49% | 1010.4 hPa | 0 mm | - | 654 W/m² | - |
| 1777910455 | 18.89° C | 48% | 1010.3 hPa | 0 mm | - | 646 W/m² | - |
| 1777910151 | 19.44° C | 48% | 1010.3 hPa | 0 mm | - | 641 W/m² | - |
| 1777909849 | 18.89° C | 47% | 1010.6 hPa | 0 mm | - | 635 W/m² | - |
| 1777909545 | 18.33° C | 49% | 1010.5 hPa | 0 mm | - | 620 W/m² | - |
| 1777909243 | 18.89° C | 50% | 1010.5 hPa | 0 mm | - | 613 W/m² | - |
| 1777908941 | 18.89° C | 48% | 1010.4 hPa | 0 mm | - | 602 W/m² | - |
| 1777908639 | 18.89° C | 49% | 1010.6 hPa | 0 mm | - | 597 W/m² | - |
| 1777908335 | 18.89° C | 51% | 1010.6 hPa | 0 mm | - | 589 W/m² | - |
| 1777908032 | 18.89° C | 48% | 1010.7 hPa | 0 mm | - | 594 W/m² | - |
| 1777907727 | 18.33° C | 50% | 1010.5 hPa | 0 mm | - | 587 W/m² | - |
| 1777907422 | 18.33° C | 49% | 1010.8 hPa | 0 mm | - | 584 W/m² | - |
| 1777907120 | 17.78° C | 50% | 1010.7 hPa | 0 mm | - | 576 W/m² | - |
| 1777906817 | 17.22° C | 49% | 1010.7 hPa | 0 mm | - | 569 W/m² | - |
| 1777906515 | 17.22° C | 51% | 1010.7 hPa | 0 mm | - | 559 W/m² | - |
| 1777906210 | 17.22° C | 51% | 1010.8 hPa | 0 mm | - | 541 W/m² | - |
| 1777905906 | 17.22° C | 51% | 1010.8 hPa | 0 mm | - | 538 W/m² | - |
| 1777905603 | 17.22° C | 51% | 1010.8 hPa | 0 mm | - | 527 W/m² | - |
| 1777905300 | 17.22° C | 51% | 1010.6 hPa | 0 mm | - | 516 W/m² | - |
| 1777904992 | 17.22° C | 51% | 1010.8 hPa | 0 mm | - | 504 W/m² | - |
| 1777904690 | 17.22° C | 51% | 1010.5 hPa | 0 mm | - | 494 W/m² | - |
| 1777904386 | 16.67° C | 53% | 1010.6 hPa | 0 mm | - | 482 W/m² | - |
| 1777904083 | 16.11° C | 52% | 1010.6 hPa | 0 mm | - | 472 W/m² | - |
| 1777903780 | 16.11° C | 52% | 1010.9 hPa | 0 mm | - | 459 W/m² | - |
| 1777903476 | 15.56° C | 53% | 1010.7 hPa | 0 mm | - | 447 W/m² | - |
* Rain latest hour (hover to see other rain measurements)
** Current wind speed in m/s (hover to see current wind gust speed)